{"data":{"norad_id":68852,"epoch":"2026-05-25T00:54:13.208832Z","epoch_age_seconds":65598,"freshness":"FRESH","line1":"1 68852U 26094P   26145.03765288  .00043725  00000+0  80126-3 0  9997","line2":"2 68852  97.2864 159.6989 0001731 121.3187 238.8234 15.49184929  4498","mean_motion":15.49184929,"eccentricity":0.0001731,"inclination_deg":97.2864,"raan_deg":159.6989,"arg_perigee_deg":121.3187,"mean_anomaly_deg":238.8234,"bstar":0.00080126,"rev_number":449,"period_min":92.952104880695,"perigee_km":417.93257296169,"apogee_km":420.28577958792,"semimajor_km":6797.2461762748,"source":"CELESTRAK","updated_at":"2026-05-25T13:38:22.048354Z"}}